owner,sensor,date,latitude,longitude,vertical_datum,direction_of_sea_water_velocity,sea_water_speed,upward_sea_water_velocity,qcFlag 
TABS,ioos:station:wmo:42050:1,2017-03-01T00:00:00Z,28.8425,-94.2433,2.0,18.15965846,1.31552271,-99999.0,'11133222,11111222,99999999' 
TABS,ioos:station:wmo:42050:1,2017-03-01T00:30:00Z,28.8425,-94.2433,2.0,29.01385037,1.36077184,-99999.0,'11133222,11111222,99999999' 
TABS,ioos:station:wmo:42050:1,2017-03-01T01:00:00Z,28.8425,-94.2433,2.0,154.622105,0.863307593,-99999.0,'11133222,11111222,99999999' 
TABS,ioos:station:wmo:42050:1,2017-03-01T01:30:00Z,28.8425,-94.2433,2.0,233.7599418,2.182131985,-99999.0,'11133222,11111222,99999999' 
TABS,ioos:station:wmo:42050:1,2017-03-01T02:00:00Z,28.8425,-94.2433,2.0,341.7575713,1.884728097,-99999.0,'11133222,11111222,99999999' 
TABS,ioos:station:wmo:42050:1,2017-03-01T02:30:00Z,28.8425,-94.2433,2.0,136.3970725,1.45,-99999.0,'11133222,11111222,99999999' 
TABS,ioos:station:wmo:42050:1,2017-03-01T03:00:00Z,28.8425,-94.2433,2.0,108.824666,0.929731144,-99999.0,'11133222,11111222,99999999' 
TABS,ioos:station:wmo:42050:1,2017-03-01T03:30:00Z,28.8425,-94.2433,2.0,304.4877131,1.395206078,-99999.0,'11133222,11111222,99999999' 
TABS,ioos:station:wmo:42050:1,2017-03-01T04:00:00Z,28.8425,-94.2433,2.0,341.4304917,6.719858629,-99999.0,'11133222,11111222,99999999' 
TABS,ioos:station:wmo:42050:1,2017-03-01T04:30:00Z,28.8425,-94.2433,2.0,349.6882768,7.206399933,-99999.0,'11133222,11111222,99999999' 
TABS,ioos:station:wmo:42050:1,2017-03-01T05:00:00Z,28.8425,-94.2433,2.0,9.473428155,8.62765901,-99999.0,'11133222,11111222,99999999' 
TABS,ioos:station:wmo:42050:1,2017-03-01T05:30:00Z,28.8425,-94.2433,2.0,15.32168471,10.5966221,-99999.0,'11111222,11111222,99999999' 
TABS,ioos:station:wmo:42050:1,2017-03-01T06:00:00Z,28.8425,-94.2433,2.0,11.03410588,9.770619223,-99999.0,'11133222,11111222,99999999' 
TABS,ioos:station:wmo:42050:1,2017-03-01T06:30:00Z,28.8425,-94.2433,2.0,14.66845834,8.135139827,-99999.0,'11133222,11111222,99999999' 
TABS,ioos:station:wmo:42050:1,2017-03-01T07:00:00Z,28.8425,-94.2433,2.0,16.2114727,11.2472041,-99999.0,'11111222,11111222,99999999' 
TABS,ioos:station:wmo:42050:1,2017-03-01T07:30:00Z,28.8425,-94.2433,2.0,22.48313606,10.30310633,-99999.0,'11111222,11111222,99999999' 
TABS,ioos:station:wmo:42050:1,2017-03-01T08:00:00Z,28.8425,-94.2433,2.0,27.81215494,10.48069654,-99999.0,'11111222,11111222,99999999' 
TABS,ioos:station:wmo:42050:1,2017-03-01T08:30:00Z,28.8425,-94.2433,2.0,28.25298064,9.7176952,-99999.0,'11133222,11111222,99999999' 
TABS,ioos:station:wmo:42050:1,2017-03-01T09:00:00Z,28.8425,-94.2433,2.0,24.84160295,10.25924949,-99999.0,'11111222,11111222,99999999' 
TABS,ioos:station:wmo:42050:1,2017-03-01T09:30:00Z,28.8425,-94.2433,2.0,40.55523194,10.76626212,-99999.0,'11111222,11111222,99999999' 
TABS,ioos:station:wmo:42050:1,2017-03-01T10:00:00Z,28.8425,-94.2433,2.0,54.49038853,9.520682749,-99999.0,'11133222,11111222,99999999' 
TABS,ioos:station:wmo:42050:1,2017-03-01T10:30:00Z,28.8425,-94.2433,2.0,60.14005986,9.25921163,-99999.0,'11133222,11111222,99999999' 
TABS,ioos:station:wmo:42050:1,2017-03-01T11:00:00Z,28.8425,-94.2433,2.0,80.08251899,8.070600969,-99999.0,'11133222,11111222,99999999' 
TABS,ioos:station:wmo:42050:1,2017-03-01T11:30:00Z,28.8425,-94.2433,2.0,103.3097503,9.947185532,-99999.0,'11133222,11111222,99999999' 
TABS,ioos:station:wmo:42050:1,2017-03-01T12:00:00Z,28.8425,-94.2433,2.0,132.6557678,7.260991668,-99999.0,'11133222,11111222,99999999' 
TABS,ioos:station:wmo:42050:1,2017-03-01T12:30:00Z,28.8425,-94.2433,2.0,138.2423312,11.12645945,-99999.0,'11111222,11111222,99999999' 
TABS,ioos:station:wmo:42050:1,2017-03-01T13:00:00Z,28.8425,-94.2433,2.0,150.2492807,12.47417332,-99999.0,'11111222,11111222,99999999' 
TABS,ioos:station:wmo:42050:1,2017-03-01T13:30:00Z,28.8425,-94.2433,2.0,159.1472287,13.79348397,-99999.0,'11111222,11111222,99999999' 
TABS,ioos:station:wmo:42050:1,2017-03-01T14:00:00Z,28.8425,-94.2433,2.0,254.9987213,33.99861174,-99999.0,'11111222,11111222,99999999' 
TABS,ioos:station:wmo:42050:1,2017-03-01T14:30:00Z,28.8425,-94.2433,2.0,168.6749238,15.02249646,-99999.0,'11111222,11111222,99999999' 
TABS,ioos:station:wmo:42050:1,2017-03-01T15:00:00Z,28.8425,-94.2433,2.0,170.971881,16.69684102,-99999.0,'11111222,11111222,99999999' 
TABS,ioos:station:wmo:42050:1,2017-03-01T15:30:00Z,28.8425,-94.2433,2.0,174.1629994,14.45494033,-99999.0,'11111222,11111222,99999999' 
TABS,ioos:station:wmo:42050:1,2017-03-01T16:00:00Z,28.8425,-94.2433,2.0,171.2425324,11.75706171,-99999.0,'11111222,11111222,99999999' 
TABS,ioos:station:wmo:42050:1,2017-03-01T16:30:00Z,28.8425,-94.2433,2.0,179.2543492,10.76091074,-99999.0,'11111222,11111222,99999999' 
TABS,ioos:station:wmo:42050:1,2017-03-01T17:00:00Z,28.8425,-94.2433,2.0,183.2291331,8.343248768,-99999.0,'11133222,11111222,99999999' 
TABS,ioos:station:wmo:42050:1,2017-03-01T17:30:00Z,28.8425,-94.2433,2.0,174.1346462,9.590203335,-99999.0,'11133222,11111222,99999999' 
TABS,ioos:station:wmo:42050:1,2017-03-01T18:00:00Z,28.8425,-94.2433,2.0,194.8239819,7.230670785,-99999.0,'11133222,11111222,99999999' 
TABS,ioos:station:wmo:42050:1,2017-03-01T18:30:00Z,28.8425,-94.2433,2.0,186.7924743,3.63551922,-99999.0,'11133222,11111222,99999999' 
TABS,ioos:station:wmo:42050:1,2017-03-01T19:00:00Z,28.8425,-94.2433,2.0,196.9688446,6.304482532,-99999.0,'11133222,11111222,99999999' 
TABS,ioos:station:wmo:42050:1,2017-03-01T19:30:00Z,28.8425,-94.2433,2.0,200.779706,4.791701159,-99999.0,'11133222,11111222,99999999' 
TABS,ioos:station:wmo:42050:1,2017-03-01T20:00:00Z,28.8425,-94.2433,2.0,231.1215554,4.508769233,-99999.0,'11133222,11111222,99999999' 
TABS,ioos:station:wmo:42050:1,2017-03-01T20:30:00Z,28.8425,-94.2433,2.0,247.0170344,5.224720088,-99999.0,'11133222,11111222,99999999' 
TABS,ioos:station:wmo:42050:1,2017-03-01T21:00:00Z,28.8425,-94.2433,2.0,236.6332911,3.436422558,-99999.0,'11133222,11111222,99999999' 
TABS,ioos:station:wmo:42050:1,2017-03-01T21:30:00Z,28.8425,-94.2433,2.0,251.6890937,5.824929184,-99999.0,'11133222,11111222,99999999' 
TABS,ioos:station:wmo:42050:1,2017-03-01T22:00:00Z,28.8425,-94.2433,2.0,234.0421626,6.028764384,-99999.0,'11133222,11111222,99999999' 
TABS,ioos:station:wmo:42050:1,2017-03-01T22:30:00Z,28.8425,-94.2433,2.0,242.532371,5.680316893,-99999.0,'11133222,11111222,99999999' 
TABS,ioos:station:wmo:42050:1,2017-03-01T23:00:00Z,28.8425,-94.2433,2.0,235.7717391,6.204595071,-99999.0,'11133222,11111222,99999999' 
TABS,ioos:station:wmo:42050:1,2017-03-01T23:30:00Z,28.8425,-94.2433,2.0,216.1636592,6.168468205,-99999.0,'11133222,11111222,99999999' 
TABS,ioos:station:wmo:42050:1,2017-03-02T00:00:00Z,28.8425,-94.2433,2.0,234.8087378,8.259545992,-99999.0,'11133222,11111222,99999999' 
TABS,ioos:station:wmo:42050:1,2017-03-02T00:30:00Z,28.8425,-94.2433,2.0,232.3798968,10.23887689,-99999.0,'11111222,11111222,99999999' 
TABS,ioos:station:wmo:42050:1,2017-03-02T01:00:00Z,28.8425,-94.2433,2.0,202.7930859,14.48083561,-99999.0,'11111222,11111222,99999999' 
TABS,ioos:station:wmo:42050:1,2017-03-02T01:30:00Z,28.8425,-94.2433,2.0,197.8342558,18.70906198,-99999.0,'11111222,11111222,99999999' 
TABS,ioos:station:wmo:42050:1,2017-03-02T02:00:00Z,28.8425,-94.2433,2.0,208.2807671,21.65484934,-99999.0,'11111222,11111222,99999999' 
TABS,ioos:station:wmo:42050:1,2017-03-02T02:30:00Z,28.8425,-94.2433,2.0,206.9846659,25.63049941,-99999.0,'11111222,11111222,99999999' 
TABS,ioos:station:wmo:42050:1,2017-03-02T03:00:00Z,28.8425,-94.2433,2.0,216.2423856,24.84748881,-99999.0,'11111222,11111222,99999999' 
TABS,ioos:station:wmo:42050:1,2017-03-02T03:30:00Z,28.8425,-94.2433,2.0,212.328089,27.07701608,-99999.0,'11111222,11111222,99999999' 
TABS,ioos:station:wmo:42050:1,2017-03-02T04:00:00Z,28.8425,-94.2433,2.0,227.0394889,25.82576233,-99999.0,'11111222,11111222,99999999' 
TABS,ioos:station:wmo:42050:1,2017-03-02T04:30:00Z,28.8425,-94.2433,2.0,229.9168884,26.72801152,-99999.0,'11111222,11111222,99999999' 
TABS,ioos:station:wmo:42050:1,2017-03-02T05:00:00Z,28.8425,-94.2433,2.0,233.6672345,26.65117258,-99999.0,'11111222,11111222,99999999' 
TABS,ioos:station:wmo:42050:1,2017-03-02T05:30:00Z,28.8425,-94.2433,2.0,239.5410516,25.09293327,-99999.0,'11111222,11111222,99999999' 
TABS,ioos:station:wmo:42050:1,2017-03-02T06:00:00Z,28.8425,-94.2433,2.0,249.6851255,23.04326583,-99999.0,'11111222,11111222,99999999' 
TABS,ioos:station:wmo:42050:1,2017-03-02T06:30:00Z,28.8425,-94.2433,2.0,266.2714235,23.06881878,-99999.0,'11111222,11111222,99999999' 
TABS,ioos:station:wmo:42050:1,2017-03-02T07:00:00Z,28.8425,-94.2433,2.0,276.8934281,20.83056408,-99999.0,'11111222,11111222,99999999' 
TABS,ioos:station:wmo:42050:1,2017-03-02T07:30:00Z,28.8425,-94.2433,2.0,279.2369168,19.18879882,-99999.0,'11111222,11111222,99999999' 
TABS,ioos:station:wmo:42050:1,2017-03-02T08:00:00Z,28.8425,-94.2433,2.0,279.9551238,19.32088249,-99999.0,'11111222,11111222,99999999' 
TABS,ioos:station:wmo:42050:1,2017-03-02T08:30:00Z,28.8425,-94.2433,2.0,287.9877135,20.23919465,-99999.0,'11111222,11111222,99999999' 
TABS,ioos:station:wmo:42050:1,2017-03-02T09:00:00Z,28.8425,-94.2433,2.0,281.9967241,36.99800265,-99999.0,'11111222,11111222,99999999' 
TABS,ioos:station:wmo:42050:1,2017-03-02T09:30:00Z,28.8425,-94.2433,2.0,283.6731019,21.40662514,-99999.0,'11111222,11111222,99999999' 
TABS,ioos:station:wmo:42050:1,2017-03-02T10:00:00Z,28.8425,-94.2433,2.0,283.7960105,20.21309724,-99999.0,'11111222,11111222,99999999' 
TABS,ioos:station:wmo:42050:1,2017-03-02T10:30:00Z,28.8425,-94.2433,2.0,277.0719919,21.28188901,-99999.0,'11111222,11111222,99999999' 
TABS,ioos:station:wmo:42050:1,2017-03-02T11:00:00Z,28.8425,-94.2433,2.0,272.6962667,21.47376539,-99999.0,'11111222,11111222,99999999' 
TABS,ioos:station:wmo:42050:1,2017-03-02T11:30:00Z,28.8425,-94.2433,2.0,259.433862,22.19633528,-99999.0,'11111222,11111222,99999999' 
TABS,ioos:station:wmo:42050:1,2017-03-02T12:00:00Z,28.8425,-94.2433,2.0,254.9330044,22.65891657,-99999.0,'11111222,11111222,99999999' 
TABS,ioos:station:wmo:42050:1,2017-03-02T12:30:00Z,28.8425,-94.2433,2.0,258.5741979,28.219208,-99999.0,'11111222,11111222,99999999' 
TABS,ioos:station:wmo:42050:1,2017-03-02T13:00:00Z,28.8425,-94.2433,2.0,256.7469059,29.61879471,-99999.0,'11111222,11111222,99999999' 
TABS,ioos:station:wmo:42050:1,2017-03-02T13:30:00Z,28.8425,-94.2433,2.0,248.8899944,27.37720219,-99999.0,'11111222,11111222,99999999' 
TABS,ioos:station:wmo:42050:1,2017-03-02T14:00:00Z,28.8425,-94.2433,2.0,244.5378765,31.1228919,-99999.0,'11111222,11111222,99999999' 
TABS,ioos:station:wmo:42050:1,2017-03-02T14:30:00Z,28.8425,-94.2433,2.0,246.3105175,34.04900586,-99999.0,'11111222,11111222,99999999' 
TABS,ioos:station:wmo:42050:1,2017-03-02T15:00:00Z,28.8425,-94.2433,2.0,247.9325364,35.64088944,-99999.0,'11111222,11111222,99999999' 
TABS,ioos:station:wmo:42050:1,2017-03-02T15:30:00Z,28.8425,-94.2433,2.0,250.4140981,33.85900914,-99999.0,'11111222,11111222,99999999' 
TABS,ioos:station:wmo:42050:1,2017-03-02T16:00:00Z,28.8425,-94.2433,2.0,255.2811514,31.36935607,-99999.0,'11111222,11111222,99999999' 
TABS,ioos:station:wmo:42050:1,2017-03-02T16:30:00Z,28.8425,-94.2433,2.0,257.1360685,33.41870734,-99999.0,'11111222,11111222,99999999' 
TABS,ioos:station:wmo:42050:1,2017-03-02T17:00:00Z,28.8425,-94.2433,2.0,255.5588568,33.3228,-99999.0,'11111222,11111222,99999999' 
TABS,ioos:station:wmo:42050:1,2017-03-02T17:30:00Z,28.8425,-94.2433,2.0,252.3026538,30.19909436,-99999.0,'11111222,11111222,99999999' 
TABS,ioos:station:wmo:42050:1,2017-03-02T18:00:00Z,28.8425,-94.2433,2.0,259.0579314,29.29251099,-99999.0,'11111222,11111222,99999999' 
TABS,ioos:station:wmo:42050:1,2017-03-02T18:30:00Z,28.8425,-94.2433,2.0,254.1044773,28.18777217,-99999.0,'11111222,11111222,99999999' 
TABS,ioos:station:wmo:42050:1,2017-03-02T19:00:00Z,28.8425,-94.2433,2.0,261.8751367,28.72833445,-99999.0,'11111222,11111222,99999999' 
TABS,ioos:station:wmo:42050:1,2017-03-02T19:30:00Z,28.8425,-94.2433,2.0,262.4049535,32.23274887,-99999.0,'11111222,11111222,99999999' 
TABS,ioos:station:wmo:42050:1,2017-03-02T20:00:00Z,28.8425,-94.2433,2.0,270.9966031,30.48460759,-99999.0,'11111222,11111222,99999999' 
TABS,ioos:station:wmo:42050:1,2017-03-02T20:30:00Z,28.8425,-94.2433,2.0,272.5659938,33.06314111,-99999.0,'11111222,11111222,99999999' 
TABS,ioos:station:wmo:42050:1,2017-03-02T21:00:00Z,28.8425,-94.2433,2.0,274.6358735,29.32592369,-99999.0,'11111222,11111222,99999999' 
TABS,ioos:station:wmo:42050:1,2017-03-02T21:30:00Z,28.8425,-94.2433,2.0,273.3668737,31.67465864,-99999.0,'11111222,11111222,99999999' 
TABS,ioos:station:wmo:42050:1,2017-03-02T22:00:00Z,28.8425,-94.2433,2.0,268.8109624,29.40632755,-99999.0,'11111222,11111222,99999999' 
TABS,ioos:station:wmo:42050:1,2017-03-02T22:30:00Z,28.8425,-94.2433,2.0,263.4709303,27.52851976,-99999.0,'11111222,11111222,99999999' 
TABS,ioos:station:wmo:42050:1,2017-03-02T23:00:00Z,28.8425,-94.2433,2.0,264.195018,22.44508409,-99999.0,'11111222,11111222,99999999' 
TABS,ioos:station:wmo:42050:1,2017-03-02T23:30:00Z,28.8425,-94.2433,2.0,258.6509569,26.120714,-99999.0,'11111222,11111222,99999999' 
TABS,ioos:station:wmo:42050:1,2017-03-03T00:00:00Z,28.8425,-94.2433,2.0,251.1429894,26.6397485,-99999.0,'11111222,11111222,99999999' 
TABS,ioos:station:wmo:42050:1,2017-03-03T00:30:00Z,28.8425,-94.2433,2.0,247.2534069,25.113138,-99999.0,'11111222,11111222,99999999' 
TABS,ioos:station:wmo:42050:1,2017-03-03T01:00:00Z,28.8425,-94.2433,2.0,248.9165867,27.10436496,-99999.0,'11111222,11111222,99999999' 
TABS,ioos:station:wmo:42050:1,2017-03-03T01:30:00Z,28.8425,-94.2433,2.0,236.1318094,28.60325331,-99999.0,'11111222,11111222,99999999' 
TABS,ioos:station:wmo:42050:1,2017-03-03T02:00:00Z,28.8425,-94.2433,2.0,231.7290418,31.49941269,-99999.0,'11111222,11111222,99999999' 
TABS,ioos:station:wmo:42050:1,2017-03-03T02:30:00Z,28.8425,-94.2433,2.0,231.4676453,31.51125831,-99999.0,'11111222,11111222,99999999' 
TABS,ioos:station:wmo:42050:1,2017-03-03T03:00:00Z,28.8425,-94.2433,2.0,230.4523497,32.66766138,-99999.0,'11111222,11111222,99999999' 
TABS,ioos:station:wmo:42050:1,2017-03-03T03:30:00Z,28.8425,-94.2433,2.0,242.5850727,37.70425042,-99999.0,'11111222,11111222,99999999' 
TABS,ioos:station:wmo:42050:1,2017-03-03T04:00:00Z,28.8425,-94.2433,2.0,245.349052,32.12786952,-99999.0,'11111222,11111222,99999999' 
TABS,ioos:station:wmo:42050:1,2017-03-03T04:30:00Z,28.8425,-94.2433,2.0,249.1095809,31.52205736,-99999.0,'11111222,11111222,99999999' 
TABS,ioos:station:wmo:42050:1,2017-03-03T05:00:00Z,28.8425,-94.2433,2.0,254.207417,27.22770831,-99999.0,'11111222,11111222,99999999' 
TABS,ioos:station:wmo:42050:1,2017-03-03T05:30:00Z,28.8425,-94.2433,2.0,261.0927101,28.9997,-99999.0,'11111222,11111222,99999999' 
TABS,ioos:station:wmo:42050:1,2017-03-03T06:00:00Z,28.8425,-94.2433,2.0,257.9570321,34.50945523,-99999.0,'11111222,11111222,99999999' 
TABS,ioos:station:wmo:42050:1,2017-03-03T06:30:00Z,28.8425,-94.2433,2.0,258.7620617,31.04520897,-99999.0,'11111222,11111222,99999999' 
TABS,ioos:station:wmo:42050:1,2017-03-03T07:00:00Z,28.8425,-94.2433,2.0,266.5043821,30.83736046,-99999.0,'11111222,11111222,99999999' 
TABS,ioos:station:wmo:42050:1,2017-03-03T07:30:00Z,28.8425,-94.2433,2.0,266.8524718,32.05834837,-99999.0,'11111222,11111222,99999999' 
TABS,ioos:station:wmo:42050:1,2017-03-03T08:00:00Z,28.8425,-94.2433,2.0,273.984255,30.08268937,-99999.0,'11111222,11111222,99999999' 
TABS,ioos:station:wmo:42050:1,2017-03-03T08:30:00Z,28.8425,-94.2433,2.0,257.5136164,30.48090714,-99999.0,'11111222,11111222,99999999' 
TABS,ioos:station:wmo:42050:1,2017-03-03T09:00:00Z,28.8425,-94.2433,2.0,269.6683941,27.68046242,-99999.0,'11111222,11111222,99999999' 
TABS,ioos:station:wmo:42050:1,2017-03-03T09:30:00Z,28.8425,-94.2433,2.0,277.0122628,32.02955198,-99999.0,'11111222,11111222,99999999' 
TABS,ioos:station:wmo:42050:1,2017-03-03T10:00:00Z,28.8425,-94.2433,2.0,273.8169261,31.24930079,-99999.0,'11111222,11111222,99999999' 
TABS,ioos:station:wmo:42050:1,2017-03-03T10:30:00Z,28.8425,-94.2433,2.0,266.4500387,30.68887258,-99999.0,'11111222,11111222,99999999' 
TABS,ioos:station:wmo:42050:1,2017-03-03T11:00:00Z,28.8425,-94.2433,2.0,276.7433382,32.36386256,-99999.0,'11111222,11111222,99999999' 
TABS,ioos:station:wmo:42050:1,2017-03-03T11:30:00Z,28.8425,-94.2433,2.0,281.7547019,30.09100364,-99999.0,'11111222,11111222,99999999' 
TABS,ioos:station:wmo:42050:1,2017-03-03T12:00:00Z,28.8425,-94.2433,2.0,261.3254728,30.2358347,-99999.0,'11111222,11111222,99999999' 
TABS,ioos:station:wmo:42050:1,2017-03-03T12:30:00Z,28.8425,-94.2433,2.0,269.4197213,30.63156868,-99999.0,'11111222,11111222,99999999' 
TABS,ioos:station:wmo:42050:1,2017-03-03T13:00:00Z,28.8425,-94.2433,2.0,255.8067715,29.28386074,-99999.0,'11111222,11111222,99999999' 
TABS,ioos:station:wmo:42050:1,2017-03-03T13:30:00Z,28.8425,-94.2433,2.0,250.4730904,32.70072323,-99999.0,'11111222,11111222,99999999' 
TABS,ioos:station:wmo:42050:1,2017-03-03T14:00:00Z,28.8425,-94.2433,2.0,267.2957723,33.91775936,-99999.0,'11111222,11111222,99999999' 
TABS,ioos:station:wmo:42050:1,2017-03-03T14:30:00Z,28.8425,-94.2433,2.0,258.6960294,35.35581706,-99999.0,'11111222,11111222,99999999' 
TABS,ioos:station:wmo:42050:1,2017-03-03T15:00:00Z,28.8425,-94.2433,2.0,264.4668921,28.52287854,-99999.0,'11111222,11111222,99999999' 
TABS,ioos:station:wmo:42050:1,2017-03-03T15:30:00Z,28.8425,-94.2433,2.0,246.0542805,33.95216193,-99999.0,'11111222,11111222,99999999' 
TABS,ioos:station:wmo:42050:1,2017-03-03T16:00:00Z,28.8425,-94.2433,2.0,263.9757574,36.40099449,-99999.0,'11111222,11111222,99999999' 
TABS,ioos:station:wmo:42050:1,2017-03-03T16:30:00Z,28.8425,-94.2433,2.0,250.7287693,39.45044993,-99999.0,'11111222,11111222,99999999' 
TABS,ioos:station:wmo:42050:1,2017-03-03T17:00:00Z,28.8425,-94.2433,2.0,251.6485615,38.87708322,-99999.0,'11111222,11111222,99999999' 
TABS,ioos:station:wmo:42050:1,2017-03-03T17:30:00Z,28.8425,-94.2433,2.0,264.4957391,38.05544508,-99999.0,'11111222,11111222,99999999' 
TABS,ioos:station:wmo:42050:1,2017-03-03T18:00:00Z,28.8425,-94.2433,2.0,262.1810123,37.19578067,-99999.0,'11111222,11111222,99999999' 
TABS,ioos:station:wmo:42050:1,2017-03-03T18:30:00Z,28.8425,-94.2433,2.0,257.3342239,39.13219646,-99999.0,'11111222,11111222,99999999' 
TABS,ioos:station:wmo:42050:1,2017-03-03T19:00:00Z,28.8425,-94.2433,2.0,263.8315123,36.76282089,-99999.0,'11111222,11111222,99999999' 
TABS,ioos:station:wmo:42050:1,2017-03-03T19:30:00Z,28.8425,-94.2433,2.0,261.1691057,36.674712,-99999.0,'11111222,11111222,99999999' 
TABS,ioos:station:wmo:42050:1,2017-03-03T20:00:00Z,28.8425,-94.2433,2.0,256.284529,36.77867997,-99999.0,'11111222,11111222,99999999' 
TABS,ioos:station:wmo:42050:1,2017-03-03T20:30:00Z,28.8425,-94.2433,2.0,268.793867,36.1179969,-99999.0,'11111222,11111222,99999999' 
TABS,ioos:station:wmo:42050:1,2017-03-03T21:00:00Z,28.8425,-94.2433,2.0,263.8864072,35.11970957,-99999.0,'11111222,11111222,99999999' 
TABS,ioos:station:wmo:42050:1,2017-03-03T21:30:00Z,28.8425,-94.2433,2.0,268.2455615,37.89775719,-99999.0,'11111222,11111222,99999999' 
TABS,ioos:station:wmo:42050:1,2017-03-03T22:00:00Z,28.8425,-94.2433,2.0,272.9610833,36.97935911,-99999.0,'11111222,11111222,99999999' 
TABS,ioos:station:wmo:42050:1,2017-03-03T22:30:00Z,28.8425,-94.2433,2.0,274.2512857,35.07649355,-99999.0,'11111222,11111222,99999999' 
TABS,ioos:station:wmo:42050:1,2017-03-03T23:00:00Z,28.8425,-94.2433,2.0,269.8750912,36.82008691,-99999.0,'11111222,11111222,99999999' 
TABS,ioos:station:wmo:42050:1,2017-03-03T23:30:00Z,28.8425,-94.2433,2.0,279.659232,34.03243453,-99999.0,'11111222,11111222,99999999' 
TABS,ioos:station:wmo:42050:1,2017-03-04T00:00:00Z,28.8425,-94.2433,2.0,265.7096414,35.96075222,-99999.0,'11111222,11111222,99999999' 
TABS,ioos:station:wmo:42050:1,2017-03-04T00:30:00Z,28.8425,-94.2433,2.0,274.7443758,33.85598322,-99999.0,'11111222,11111222,99999999' 
TABS,ioos:station:wmo:42050:1,2017-03-04T01:00:00Z,28.8425,-94.2433,2.0,272.2841645,33.3765097,-99999.0,'11111222,11111222,99999999' 
TABS,ioos:station:wmo:42050:1,2017-03-04T01:30:00Z,28.8425,-94.2433,2.0,265.8982883,33.83665025,-99999.0,'11111222,11111222,99999999' 
TABS,ioos:station:wmo:42050:1,2017-03-04T02:00:00Z,28.8425,-94.2433,2.0,258.3236234,34.68776874,-99999.0,'11111222,11111222,99999999' 
TABS,ioos:station:wmo:42050:1,2017-03-04T02:30:00Z,28.8425,-94.2433,2.0,261.0166381,34.58418136,-99999.0,'11111222,11111222,99999999' 
TABS,ioos:station:wmo:42050:1,2017-03-04T03:00:00Z,28.8425,-94.2433,2.0,249.9358066,37.60202654,-99999.0,'11111222,11111222,99999999' 
TABS,ioos:station:wmo:42050:1,2017-03-04T03:30:00Z,28.8425,-94.2433,2.0,250.4913673,36.80272001,-99999.0,'11111222,11111222,99999999' 
TABS,ioos:station:wmo:42050:1,2017-03-04T04:00:00Z,28.8425,-94.2433,2.0,254.5466983,39.63273395,-99999.0,'11111222,11111222,99999999' 
TABS,ioos:station:wmo:42050:1,2017-03-04T04:30:00Z,28.8425,-94.2433,2.0,256.9758073,36.78627054,-99999.0,'11111222,11111222,99999999' 
TABS,ioos:station:wmo:42050:1,2017-03-04T05:00:00Z,28.8425,-94.2433,2.0,250.9845178,40.91248342,-99999.0,'11111222,11111222,99999999' 
TABS,ioos:station:wmo:42050:1,2017-03-04T05:30:00Z,28.8425,-94.2433,2.0,255.6737438,41.26311307,-99999.0,'11111222,11111222,99999999' 
TABS,ioos:station:wmo:42050:1,2017-03-04T06:00:00Z,28.8425,-94.2433,2.0,258.0874088,40.11384923,-99999.0,'11111222,11111222,99999999' 
TABS,ioos:station:wmo:42050:1,2017-03-04T06:30:00Z,28.8425,-94.2433,2.0,259.066298,37.59235295,-99999.0,'11111222,11111222,99999999' 
TABS,ioos:station:wmo:42050:1,2017-03-04T07:00:00Z,28.8425,-94.2433,2.0,264.8328985,35.53437913,-99999.0,'11111222,11111222,99999999' 
TABS,ioos:station:wmo:42050:1,2017-03-04T07:30:00Z,28.8425,-94.2433,2.0,266.8539687,38.08738636,-99999.0,'11111222,11111222,99999999' 
TABS,ioos:station:wmo:42050:1,2017-03-04T08:00:00Z,28.8425,-94.2433,2.0,265.2556242,33.85598322,-99999.0,'11111222,11111222,99999999' 
TABS,ioos:station:wmo:42050:1,2017-03-04T08:30:00Z,28.8425,-94.2433,2.0,274.1710086,36.98794669,-99999.0,'11111222,11111222,99999999' 
TABS,ioos:station:wmo:42050:1,2017-03-04T09:00:00Z,28.8425,-94.2433,2.0,275.4269928,37.53823917,-99999.0,'11111222,11111222,99999999' 
TABS,ioos:station:wmo:42050:1,2017-03-04T09:30:00Z,28.8425,-94.2433,2.0,283.0258718,34.7850212,-99999.0,'11111222,11111222,99999999' 
TABS,ioos:station:wmo:42050:1,2017-03-04T10:00:00Z,28.8425,-94.2433,2.0,280.5177702,33.03500114,-99999.0,'11111222,11111222,99999999' 
TABS,ioos:station:wmo:42050:1,2017-03-04T10:30:00Z,28.8425,-94.2433,2.0,286.7107385,29.63131452,-99999.0,'11111222,11111222,99999999' 
TABS,ioos:station:wmo:42050:1,2017-03-04T11:00:00Z,28.8425,-94.2433,2.0,278.4734358,31.89815825,-99999.0,'11111222,11111222,99999999' 
TABS,ioos:station:wmo:42050:1,2017-03-04T11:30:00Z,28.8425,-94.2433,2.0,290.5774432,31.89488517,-99999.0,'11111222,11111222,99999999' 
TABS,ioos:station:wmo:42050:1,2017-03-04T12:00:00Z,28.8425,-94.2433,2.0,289.9923922,27.46503595,-99999.0,'11111222,11111222,99999999' 
TABS,ioos:station:wmo:42050:1,2017-03-04T12:30:00Z,28.8425,-94.2433,2.0,282.4405714,26.64560001,-99999.0,'11111222,11111222,99999999' 
TABS,ioos:station:wmo:42050:1,2017-03-04T13:00:00Z,28.8425,-94.2433,2.0,278.06082,26.74421246,-99999.0,'11111222,11111222,99999999' 
TABS,ioos:station:wmo:42050:1,2017-03-04T13:30:00Z,28.8425,-94.2433,2.0,271.9373255,25.44453772,-99999.0,'11111222,11111222,99999999' 
TABS,ioos:station:wmo:42050:1,2017-03-04T14:00:00Z,28.8425,-94.2433,2.0,271.8581126,29.30540223,-99999.0,'11111222,11111222,99999999' 
TABS,ioos:station:wmo:42050:1,2017-03-04T14:30:00Z,28.8425,-94.2433,2.0,263.9115656,30.36123351,-99999.0,'11111222,11111222,99999999' 
TABS,ioos:station:wmo:42050:1,2017-03-04T15:00:00Z,28.8425,-94.2433,2.0,263.9097353,28.5611782,-99999.0,'11111222,11111222,99999999' 
TABS,ioos:station:wmo:42050:1,2017-03-04T15:30:00Z,28.8425,-94.2433,2.0,260.221116,29.79283807,-99999.0,'11111222,11111222,99999999' 
TABS,ioos:station:wmo:42050:1,2017-03-04T16:00:00Z,28.8425,-94.2433,2.0,260.7194451,33.60989884,-99999.0,'11111222,11111222,99999999' 